Tracking 20719 objects as of 24-May-2020
HD Live streaming from Space Station
objects crossing your sky now

ARIANE 5 R/B

Track ARIANE 5 R/B now!


NORAD ID: 36746
Int'l Code: 2010-032C
Perigee: 289.4 km
Apogee: 33,537.6 km
Inclination: 1.7 °
Period: 589.3 minutes
Semi major axis: 23284 km
RCS: 22.3476 m2 (large)
Launch date: June 26, 2010
Source: France (FR)
Launch site: FRENCH GUIANA (FRGUI)

Note: This is a ROCKET BODY
aabbcc
Your satellite tracking list
Your tracking list is empty




NASA's NSSDC Master Catalog

Two Line Element Set (TLE):
1 36746U 10032C   20144.67690813 +.00000404 +00000-0 +16863-3 0  9998
2 36746 001.6684 316.7299 7139556 059.5041 352.0598 02.44344463085997
Source of the keplerian elements: AFSPC